TimeCDT,TemperatureF,Dew PointF,Humidity,Sea Level PressureIn,VisibilityMPH,Wind Direction,Wind SpeedMPH,Gust SpeedMPH,PrecipitationIn,Events,Conditions,WindDirDegrees,DateUTC
12:51 AM,84.0,77.0,79,29.87,10.0,SE,12.7,-,N/A,,Partly Cloudy,140,2013-09-28 05:51:00
1:51 AM,84.0,78.1,82,29.86,10.0,SSE,12.7,-,N/A,,Mostly Cloudy,150,2013-09-28 06:51:00
1:59 AM,84.2,78.8,84,29.86,10.0,SSE,10.4,-,N/A,,Scattered Clouds,150,2013-09-28 06:59:00
2:51 AM,82.9,77.0,82,29.86,10.0,SSE,11.5,-,N/A,,Partly Cloudy,150,2013-09-28 07:51:00
3:51 AM,82.9,78.1,85,29.86,10.0,SSE,11.5,-,N/A,,Scattered Clouds,150,2013-09-28 08:51:00
4:51 AM,82.9,77.0,82,29.86,10.0,South,9.2,-,0.00,,Mostly Cloudy,170,2013-09-28 09:51:00
5:51 AM,82.9,78.1,85,29.87,10.0,SSE,9.2,-,N/A,,Partly Cloudy,150,2013-09-28 10:51:00
6:51 AM,80.6,75.9,86,29.88,10.0,SSE,8.1,-,N/A,,Partly Cloudy,150,2013-09-28 11:51:00
7:51 AM,81.0,75.9,85,29.89,10.0,SE,5.8,-,N/A,,Scattered Clouds,140,2013-09-28 12:51:00
8:51 AM,84.9,78.1,80,29.91,10.0,SSE,11.5,-,N/A,,Scattered Clouds,150,2013-09-28 13:51:00
9:51 AM,88.0,75.9,67,29.91,10.0,SSE,15.0,25.3,N/A,,Scattered Clouds,160,2013-09-28 14:51:00
10:51 AM,91.0,77.0,63,29.92,10.0,SSE,17.3,21.9,N/A,,Scattered Clouds,150,2013-09-28 15:51:00
11:51 AM,93.0,75.9,57,29.92,10.0,SSE,18.4,23.0,N/A,,Scattered Clouds,150,2013-09-28 16:51:00
12:51 PM,93.0,75.0,56,29.92,10.0,SSE,16.1,25.3,N/A,,Mostly Cloudy,150,2013-09-28 17:51:00
1:51 PM,93.9,75.0,54,29.90,10.0,SSE,19.6,25.3,N/A,,Mostly Cloudy,150,2013-09-28 18:51:00
2:51 PM,95.0,75.0,52,29.88,10.0,SSE,17.3,32.2,N/A,,Scattered Clouds,150,2013-09-28 19:51:00
3:51 PM,93.0,75.0,56,29.85,10.0,SE,20.7,25.3,N/A,,Scattered Clouds,130,2013-09-28 20:51:00
4:51 PM,91.9,75.9,59,29.85,10.0,SE,17.3,25.3,N/A,,Scattered Clouds,130,2013-09-28 21:51:00
5:51 PM,90.0,75.9,63,29.85,10.0,SE,20.7,-,N/A,,Scattered Clouds,130,2013-09-28 22:51:00
6:51 PM,87.1,75.0,67,29.86,10.0,SE,20.7,-,N/A,,Partly Cloudy,140,2013-09-28 23:51:00
7:51 PM,84.9,75.0,72,29.89,10.0,SE,12.7,-,N/A,,Partly Cloudy,140,2013-09-29 00:51:00
8:51 PM,84.0,75.9,76,29.91,10.0,SE,15.0,-,N/A,,Partly Cloudy,140,2013-09-29 01:51:00
9:51 PM,84.0,75.9,76,29.93,10.0,SE,12.7,-,N/A,,Partly Cloudy,140,2013-09-29 02:51:00
10:51 PM,82.9,75.0,77,29.94,10.0,SE,8.1,-,N/A,,Partly Cloudy,130,2013-09-29 03:51:00
11:51 PM,81.0,75.9,85,29.94,10.0,SSE,10.4,-,N/A,,Partly Cloudy,150,2013-09-29 04:51:00